Location: Dunedin
(45.8900°S, 170.5000°E)
Time: 06:17:33
(UTC+12:00)

ISS - Visible Passes

Search period start: 15 August 2020 00:00
Search period end: 25 August 2020 00:00
Orbit: 418 x 420 km, 51.6° (Epoch: 15 August)

Date Brightness Start Highest point End Pass type
(mag) Time Alt. Az. Time Alt. Az. Time Alt. Az.
18 Aug -1.2 19:17:39 10° NNE 19:17:53 11° NNE 19:17:53 11° NNE visible
19 Aug -1.6 20:04:27 10° NW 20:05:48 21° NNW 20:05:48 21° NNW visible
20 Aug -2.7 19:17:12 10° NNW 19:20:13 29° NE 19:20:37 29° NE visible
20 Aug -0.3 20:53:30 10° WNW 20:53:36 11° W 20:53:36 11° W visible
21 Aug -2.0 18:30:15 10° N 18:32:45 19° NE 18:35:15 10° E visible
21 Aug -2.7 20:05:47 10° WNW 20:08:17 45° WNW 20:08:17 45° WNW visible
22 Aug -3.8 19:18:09 10° NW 19:21:34 72° NNE 19:22:52 35° ESE visible
22 Aug -0.4 20:55:23 10° W 20:55:51 13° WSW 20:55:51 13° WSW visible
23 Aug -3.2 18:30:40 10° NW 18:33:58 46° NE 18:37:18 10° ESE visible
23 Aug -2.5 20:07:30 10° W 20:10:20 40° SW 20:10:20 40° SW visible
24 Aug -3.2 19:19:41 10° WNW 19:23:04 56° SSW 19:24:45 26° SE visible
24 Aug -0.4 20:57:14 10° WSW 20:57:43 13° WSW 20:57:43 13° WSW visible
